Location: Club d'Astronomie Sirius du Saguenay
(48.5448°N, 71.1471°W)
Time: 14:27:58
(UTC-04:00)

Envisat - Visible Passes

Search period start: 18 July 2018 00:00
Search period end: 28 July 2018 00:00
Orbit: 764 x 766 km, 98.2° (Epoch: 18 July)

Date Brightness Start Highest point End Pass type
(mag) Time Alt. Az. Time Alt. Az. Time Alt. Az.
20 Jul 5.6 21:11:37 10° SW 21:15:02 18° W 21:18:29 10° NW visible
22 Jul 6.1 21:40:08 10° W 21:40:59 10° W 21:41:50 10° WNW visible
25 Jul 5.8 21:27:16 10° WSW 21:29:39 13° W 21:32:03 10° WNW visible
